SR5MRF Weather Reports


time (UTC)temp
C
wind
direction
speed
KPH
gust
KPH
rain 1hr
cm
rain 24hr
cm
rain mn
cm
humidity
%
barometer
mb
20260905223238 13 0 0.0 0.0 0.00 0.00 0.00 78 1012.6
20260905223139 13 337 0.0 0.0 0.00 0.00 0.00 77 1012.7
20260905222538 13 337 0.0 0.0 0.00 0.00 0.00 77 1012.5
20260905221838 14 337 0.0 0.0 0.00 0.00 0.00 77 1012.6
20260905221138 14 202 0.0 0.0 0.00 0.00 0.00 77 1012.6
20260905220438 14 315 0.0 0.0 0.00 0.00 0.00 77 1012.6
20260905220139 14 292 0.0 0.0 0.00 0.00 0.00 76 1012.5
20260905215738 14 180 0.0 0.0 0.00 0.00 0.00 76 1012.5
20260905215139 14 0 0.0 0.0 0.00 0.00 0.00 76 1012.6
20260905215038 14 315 0.0 0.0 0.00 0.00 0.00 76 1012.5
20260905214338 14 180 0.0 0.0 0.00 0.00 0.00 75 1012.5
20260905214139 14 180 0.0 0.0 0.00 0.00 0.00 75 1012.5
20260905213638 14 157 0.0 0.0 0.00 0.00 0.00 75 1012.3
20260905212938 14 202 0.0 0.0 0.00 0.00 0.00 75 1012.4
20260905212238 15 270 0.0 0.0 0.00 0.00 0.00 74 1012.2
20260905212139 15 270 0.0 0.0 0.00 0.00 0.00 74 1012.2
20260905211538 15 337 0.0 0.0 0.00 0.00 0.00 73 1012.2
20260905211139 15 180 0.0 0.0 0.00 0.00 0.00 73 1012.2
20260905210838 15 315 0.0 0.0 0.00 0.00 0.00 73 1012.2
20260905210138 15 202 0.0 0.0 0.00 0.00 0.00 73 1012.1
20260905205438 15 315 0.0 0.0 0.00 0.00 0.00 73 1012.1
20260905205139 15 180 0.0 0.0 0.00 0.00 0.00 73 1012.0
20260905204738 15 337 0.0 0.0 0.00 0.00 0.00 73 1012.0
20260905204139 15 337 0.0 0.0 0.00 0.00 0.00 73 1011.7
20260905204038 15 337 0.0 0.0 0.00 0.00 0.00 73 1011.8
20260905203338 15 292 0.0 0.0 0.00 0.00 0.00 72 1011.8
20260905203139 15 337 0.0 0.0 0.00 0.00 0.00 72 1011.8
20260905202638 15 225 0.0 0.0 0.00 0.00 0.00 72 1011.8
20260905202139 15 180 0.0 0.0 0.00 0.00 0.00 72 1011.6
20260905201938 15 225 0.0 0.0 0.00 0.00 0.00 71 1011.5
20260905201238 15 337 0.0 0.0 0.00 0.00 0.00 71 1011.7
20260905201139 15 337 0.0 0.0 0.00 0.00 0.00 71 1011.7
20260905200538 15 337 0.0 0.0 0.00 0.00 0.00 71 1011.6
20260905195838 15 202 0.0 0.0 0.00 0.00 0.00 71 1011.6
20260905195138 15 180 0.0 0.0 0.00 0.20 0.00 71 1011.6
20260905194438 15 337 0.0 0.0 0.00 0.20 0.00 71 1011.6
20260905194139 15 337 0.0 0.0 0.00 0.20 0.00 71 1011.7
20260905193738 15 337 0.0 0.0 0.00 0.20 0.00 71 1011.7
20260905193139 15 202 0.0 0.0 0.00 0.20 0.00 71 1011.4
20260905193038 15 202 0.0 0.0 0.00 0.20 0.00 71 1011.4
20260905192338 15 270 0.0 0.0 0.00 0.20 0.00 72 1011.6
20260905192139 15 270 0.0 0.0 0.00 0.20 0.00 72 1011.6
20260905191638 15 135 0.0 0.0 0.00 0.20 0.00 72 1011.6
20260905191139 15 180 0.0 0.0 0.00 0.20 0.00 72 1011.6
20260905190938 15 202 0.0 0.0 0.00 0.20 0.00 72 1011.4
20260905190238 15 157 0.0 0.0 0.00 0.20 0.00 72 1011.5
20260905190139 15 157 0.0 0.0 0.00 0.20 0.00 72 1011.5
20260905185538 15 157 0.0 0.0 0.00 0.30 0.00 72 1011.5
20260905185139 15 135 0.0 0.0 0.00 0.30 0.00 71 1011.7
20260905184838 15 135 0.0 0.0 0.00 0.30 0.00 71 1011.6
20260905184138 15 202 0.0 0.0 0.00 0.30 0.00 70 1011.6
20260905183438 15 180 0.0 0.0 0.00 0.30 0.00 70 1011.8
20260905183141 15 180 0.0 0.0 0.00 0.30 0.00 70 1011.9
20260905182738 15 180 0.0 0.0 0.00 0.30 0.00 70 1012.0
20260905182038 15 180 0.0 0.0 0.00 0.30 0.00 69 1012.1
20260905181338 15 180 0.0 0.0 0.00 0.30 0.00 68 1011.9
20260905181139 16 180 0.0 0.0 0.00 0.30 0.00 68 1012.0
20260905180638 16 180 0.0 0.0 0.00 0.30 0.00 68 1012.0
20260905180139 16 157 0.0 0.0 0.00 0.30 0.00 67 1011.9
20260905175938 16 157 0.0 0.0 0.00 0.30 0.00 67 1011.9
20260905175238 16 135 0.0 0.0 0.00 0.30 0.00 67 1011.7
20260905174538 16 135 0.0 0.0 0.00 0.30 0.00 67 1011.7
20260905174139 16 337 0.0 0.0 0.00 0.30 0.00 66 1011.6
20260905173838 16 337 0.0 0.0 0.00 0.30 0.00 66 1011.6
20260905173138 16 225 0.0 0.0 0.00 0.30 0.00 66 1011.6
20260905172438 16 202 0.0 0.0 0.00 0.30 0.00 66 1011.5
20260905172139 16 202 0.0 0.0 0.00 0.30 0.00 65 1011.5
20260905171738 16 292 0.0 0.0 0.00 0.30 0.00 65 1011.5
20260905171038 16 225 0.0 0.0 0.00 0.30 0.00 65 1011.5
20260905170338 16 180 0.0 0.0 0.00 0.30 0.00 64 1011.4
20260905170139 16 180 0.0 0.0 0.00 0.30 0.00 64 1011.3
20260905165638 16 202 0.0 0.0 0.00 0.30 0.00 64 1011.6
20260905165139 16 202 0.0 0.0 0.00 0.30 0.00 64 1011.4
20260905164938 16 157 0.0 0.0 0.00 0.30 0.00 64 1011.4
20260905164238 16 180 0.0 0.0 0.00 0.30 0.00 63 1011.3
20260905164139 16 180 0.0 0.0 0.00 0.30 0.00 63 1011.3
20260905163538 16 180 0.0 0.0 0.00 0.30 0.00 63 1011.3
20260905162838 16 292 0.0 0.0 0.00 0.30 0.00 62 1011.2
20260905162138 17 180 0.0 0.0 0.00 0.30 0.00 60 1011.2
20260905161438 17 225 0.0 0.0 0.00 0.30 0.00 60 1011.2
20260905160738 17 0 0.0 0.0 0.00 0.30 0.00 59 1011.1
20260905160038 17 180 0.0 0.0 0.00 0.30 0.00 59 1011.1
20260905155338 17 157 0.0 0.0 0.00 0.30 0.00 58 1011.0
20260905155141 17 157 0.0 0.0 0.00 0.30 0.00 58 1011.0
20260905154638 17 180 0.0 0.0 0.00 0.30 0.00 58 1011.0
20260905154139 17 157 0.0 0.0 0.00 0.30 0.00 58 1011.1
20260905153938 17 180 0.0 0.0 0.00 0.30 0.00 58 1011.2
20260905153238 18 337 0.0 0.0 0.00 0.30 0.00 58 1011.2
20260905153139 18 337 0.0 0.0 0.00 0.30 0.00 58 1011.2
20260905152538 18 292 0.0 0.0 0.00 0.30 0.00 57 1011.1
20260905152139 18 225 0.0 0.0 0.00 0.30 0.00 56 1011.2
20260905151838 18 202 0.0 0.0 0.00 0.30 0.00 56 1011.2
20260905151138 18 202 0.0 0.0 0.00 0.30 0.00 55 1011.2
20260905150438 19 292 0.0 0.0 0.00 0.30 0.00 54 1010.9
20260905150139 19 337 0.0 0.0 0.00 0.30 0.00 54 1010.8
20260905145738 19 315 0.0 0.0 0.00 0.30 0.00 54 1010.8
20260905145139 19 180 0.0 0.0 0.00 0.30 0.00 54 1010.7
20260905145038 19 180 0.0 0.0 0.00 0.30 0.00 54 1010.7
20260905144338 20 315 0.0 0.0 0.00 0.30 0.00 53 1010.4
20260905144139 20 247 0.0 0.0 0.00 0.30 0.00 53 1010.6
20260905143638 20 315 0.0 0.0 0.00 0.30 0.00 53 1010.4
20260905143139 20 292 0.0 0.0 0.00 0.30 0.00 53 1010.3
20260905142938 20 315 0.0 0.0 0.00 0.30 0.00 53 1010.4
20260905142238 20 315 0.0 0.0 0.00 0.30 0.00 53 1010.3
20260905142139 20 315 0.0 0.0 0.00 0.30 0.00 53 1010.1
20260905141538 20 315 0.0 0.0 0.00 0.30 0.00 53 1010.1
20260905141139 20 315 0.0 0.0 0.00 0.30 0.00 53 1010.1
20260905140838 20 0 0.0 0.0 0.00 0.30 0.00 53 1010.1
20260905140138 20 337 0.0 0.0 0.00 0.30 0.00 53 1010.2
20260905135438 20 270 0.0 0.0 0.00 0.30 0.00 53 1009.9
20260905135139 20 180 0.0 3.2 0.00 0.30 0.00 53 1009.9
20260905134738 20 337 0.0 3.2 0.00 0.30 0.00 53 1009.9
20260905134139 20 202 3.2 3.2 0.00 0.30 0.00 54 1010.0
20260905134039 20 225 0.0 0.0 0.00 0.30 0.00 53 1010.0
20260905133338 20 247 0.0 0.0 0.00 0.30 0.00 54 1010.0
20260905133139 20 270 0.0 0.0 0.00 0.30 0.00 54 1009.9
20260905132639 20 0 0.0 0.0 0.00 0.30 0.00 54 1009.9
20260905131939 20 337 0.0 0.0 0.00 0.30 0.00 54 1009.9
20260905131239 20 337 0.0 0.0 0.00 0.30 0.00 53 1009.9
20260905131139 20 337 0.0 0.0 0.00 0.30 0.00 53 1009.8
20260905130539 20 315 0.0 0.0 0.00 0.30 0.00 53 1010.0
20260905130139 20 337 0.0 0.0 0.00 0.30 0.00 52 1009.9
20260905125839 20 270 0.0 0.0 0.00 0.30 0.00 52 1009.9
20260905125139 20 0 0.0 0.0 0.00 0.30 0.00 53 1009.9
20260905124439 20 337 0.0 0.0 0.00 0.30 0.00 53 1009.9
20260905124140 20 157 0.0 0.0 0.00 0.30 0.00 52 1009.9
20260905123739 20 337 0.0 0.0 0.00 0.30 0.00 52 1010.0
20260905123140 20 337 0.0 0.0 0.00 0.30 0.00 51 1010.2
20260905123039 20 337 0.0 0.0 0.00 0.30 0.00 51 1010.2
20260905122339 21 337 0.0 0.0 0.00 0.30 0.00 52 1009.9
20260905122140 21 337 0.0 0.0 0.00 0.30 0.00 52 1009.9
20260905121639 21 337 0.0 6.4 0.00 0.30 0.00 51 1009.9
20260905121139 21 0 6.4 14.5 0.00 0.30 0.00 51 1010.0
20260905120939 21 315 14.5 14.5 0.00 0.30 0.00 51 1010.0
20260905120239 21 337 0.0 11.3 0.00 0.30 0.00 51 1009.8
20260905120139 22 337 11.3 11.3 0.00 0.30 0.00 50 1009.8
20260905115539 22 315 0.0 0.0 0.00 0.30 0.00 50 1009.9
20260905115140 22 180 0.0 0.0 0.00 0.30 0.00 50 1009.8
20260905114839 22 337 0.0 0.0 0.00 0.30 0.00 50 1009.7
20260905114139 22 202 0.0 0.0 0.00 0.30 0.00 51 1009.9
20260905113439 22 315 0.0 11.3 0.00 0.30 0.00 50 1009.9
20260905113140 22 337 11.3 11.3 0.00 0.30 0.00 50 1009.8
20260905112739 22 315 6.4 6.4 0.00 0.30 0.00 49 1009.8
20260905112039 22 0 0.0 11.3 0.00 0.30 0.00 50 1009.7
20260905111339 23 315 0.0 0.0 0.00 0.30 0.00 50 1009.8
20260905110639 23 337 0.0 0.0 0.00 0.30 0.00 51 1009.7
20260905110140 23 270 0.0 0.0 0.00 0.30 0.00 51 1009.6
20260905105939 23 202 0.0 0.0 0.00 0.30 0.00 51 1009.6
20260905105239 23 202 0.0 0.0 0.00 0.30 0.00 51 1009.5
20260905105140 23 202 0.0 0.0 0.00 0.30 0.00 51 1009.6
20260905104539 23 202 0.0 0.0 0.00 0.30 0.00 51 1009.7
20260905104140 23 135 0.0 0.0 0.00 0.30 0.00 52 1009.5
20260905103839 22 292 0.0 3.2 0.00 0.30 0.00 53 1009.5
20260905103139 22 315 0.0 0.0 0.00 0.30 0.00 55 1009.6
20260905102439 21 270 0.0 9.7 0.00 0.30 0.00 56 1009.6
20260905102140 21 270 0.0 4.8 0.00 0.30 0.00 56 1009.4
20260905101739 21 337 0.0 6.4 0.00 0.30 0.00 58 1009.4
20260905101039 20 180 0.0 0.0 0.00 0.30 0.00 58 1009.5
20260905100339 20 315 0.0 9.7 0.00 0.30 0.00 58 1009.4
20260905100140 20 0 9.7 9.7 0.00 0.30 0.00 58 1009.3
20260905095639 20 315 0.0 0.0 0.00 0.30 0.00 57 1009.3
20260905095140 20 337 0.0 0.0 0.00 0.30 0.00 57 1009.4
20260905094939 20 157 0.0 6.4 0.00 0.30 0.00 57 1009.3
20260905094239 21 225 0.0 3.2 0.00 0.30 0.00 58 1009.4
20260905094140 21 225 0.0 3.2 0.00 0.30 0.00 58 1009.4
20260905093539 21 337 3.2 3.2 0.00 0.30 0.00 57 1009.2
20260905093140 21 337 0.0 0.0 0.00 0.30 0.00 58 1009.3
20260905092839 21 202 0.0 0.0 0.00 0.30 0.00 59 1009.3
20260905092139 20 180 0.0 0.0 0.00 0.30 0.00 60 1009.3
20260905091439 20 337 0.0 0.0 0.00 0.30 0.00 61 1009.3
20260905091140 20 0 0.0 0.0 0.00 0.30 0.00 61 1009.3
20260905090739 19 315 0.0 0.0 0.00 0.30 0.00 63 1009.2
20260905090140 19 180 0.0 0.0 0.00 0.30 0.00 63 1009.2
20260905090039 19 180 0.0 0.0 0.00 0.30 0.00 64 1009.1
20260905085339 19 225 0.0 0.0 0.00 0.30 0.00 63 1009.0
20260905085140 19 337 0.0 0.0 0.00 0.30 0.00 63 1008.9
20260905084639 19 337 0.0 0.0 0.00 0.30 0.00 63 1009.1
20260905084140 20 157 0.0 0.0 0.00 0.30 0.00 63 1009.1
20260905083939 20 270 0.0 0.0 0.00 0.30 0.00 63 1009.1
20260905083239 20 180 0.0 0.0 0.00 0.30 0.00 62 1008.8
20260905082539 20 0 3.2 3.2 0.00 0.30 0.00 64 1008.9
20260905082140 20 135 0.0 0.0 0.00 0.30 0.00 65 1008.9
20260905081839 20 337 0.0 0.0 0.00 0.30 0.00 65 1008.8
20260905081139 19 157 0.0 0.0 0.00 0.30 0.00 67 1008.8
20260905080439 18 337 0.0 0.0 0.00 0.30 0.00 69 1008.9
20260905080140 18 337 0.0 0.0 0.00 0.30 0.00 70 1009.0
20260905075739 17 0 0.0 0.0 0.00 0.30 0.00 71 1008.9
20260905075039 17 337 0.0 0.0 0.00 0.30 0.00 71 1008.6
20260905074339 17 180 0.0 0.0 0.00 0.30 0.00 72 1008.6
20260905073639 17 180 0.0 0.0 0.00 0.30 0.00 72 1008.5
20260905073140 17 337 0.0 6.4 0.00 0.30 0.00 72 1008.5
20260905072939 17 292 0.0 6.4 0.00 0.30 0.00 73 1008.6
20260905072239 17 337 0.0 0.0 0.00 0.30 0.00 72 1008.4
20260905071539 17 337 0.0 0.0 0.00 0.30 0.00 73 1008.4
20260905071140 17 202 0.0 0.0 0.00 0.30 0.00 73 1008.3
20260905070839 16 315 0.0 0.0 0.00 0.30 0.00 73 1008.4
20260905070139 16 270 0.0 0.0 0.00 0.30 0.00 73 1008.2
20260905065439 16 180 0.0 0.0 0.00 0.30 0.00 74 1008.1
20260905065140 16 292 0.0 0.0 0.00 0.30 0.00 74 1008.0
20260905064739 16 337 0.0 0.0 0.00 0.30 0.00 74 1008.0
20260905064140 16 337 0.0 3.2 0.00 0.30 0.00 74 1007.9
20260905064056 16 292 0.0 0.0 0.00 0.30 0.00 74 1007.9
20260905064039 16 292 0.0 3.2 0.00 0.30 0.00 74 1007.9
20260905063339 16 315 0.0 0.0 0.00 0.30 0.00 74 1007.9
20260905063141 16 292 0.0 0.0 0.00 0.30 0.00 74 1007.9
20260905062639 16 315 0.0 0.0 0.00 0.30 0.00 74 1007.7
20260905062140 16 337 0.0 0.0 0.00 0.30 0.00 75 1007.9
20260905061939 16 337 0.0 0.0 0.00 0.30 0.00 75 1007.8
20260905061239 16 180 0.0 0.0 0.00 0.30 0.00 75 1007.6
20260905061140 16 180 0.0 0.0 0.00 0.30 0.00 75 1007.5
20260905060539 16 315 0.0 6.4 0.00 0.30 0.00 75 1007.5
20260905055839 16 337 0.0 0.0 0.00 0.30 0.00 75 1007.5
20260905055139 16 315 0.0 0.0 0.00 0.30 0.00 75 1007.6
20260905054439 15 0 0.0 0.0 0.00 0.30 0.00 75 1007.4
20260905054140 15 225 0.0 0.0 0.00 0.30 0.00 75 1007.4
20260905053739 15 315 0.0 0.0 0.00 0.30 0.00 75 1007.3
20260905053140 15 202 0.0 0.0 0.00 0.30 0.00 75 1007.3
20260905053039 15 225 0.0 0.0 0.00 0.30 0.00 75 1007.3
20260905052339 15 337 0.0 0.0 0.00 0.30 0.00 74 1007.3
20260905052140 15 337 0.0 0.0 0.00 0.30 0.00 74 1007.3
20260905051639 15 337 0.0 0.0 0.00 0.30 0.00 74 1007.2
20260905051140 15 337 0.0 0.0 0.00 0.30 0.00 74 1007.2
20260905050939 15 202 0.0 0.0 0.00 0.30 0.00 74 1007.0
20260905050239 15 315 0.0 0.0 0.00 0.30 0.00 75 1006.9
20260905050140 15 315 0.0 0.0 0.00 0.30 0.00 75 1006.9
20260905045539 15 337 0.0 0.0 0.00 0.30 0.00 75 1006.7
20260905045140 16 225 0.0 0.0 0.00 0.30 0.00 75 1006.9
20260905044839 16 0 0.0 0.0 0.00 0.30 0.00 75 1006.7
20260905044139 16 157 0.0 0.0 0.00 0.30 0.00 75 1006.6
20260905043439 16 180 0.0 0.0 0.00 0.30 0.00 75 1006.5
20260905042739 16 337 3.2 3.2 0.00 0.30 0.00 75 1006.3
20260905042140 16 337 0.0 0.0 0.00 0.30 0.00 76 1006.0
20260905042039 16 337 0.0 0.0 0.00 0.30 0.00 76 1006.0
20260905041339 16 337 0.0 0.0 0.00 0.30 0.00 77 1005.9
20260905041140 16 247 0.0 0.0 0.00 0.30 0.00 77 1006.0
20260905040639 16 315 0.0 0.0 0.00 0.30 0.00 78 1005.6
20260905040140 16 225 0.0 0.0 0.00 0.30 0.00 79 1005.9
20260905035939 16 337 0.0 0.0 0.00 0.30 0.00 79 1005.5
20260905035239 16 337 0.0 0.0 0.00 0.30 0.00 79 1005.4
20260905035140 16 337 0.0 0.0 0.00 0.30 0.00 80 1005.3
20260905034539 16 337 0.0 0.0 0.00 0.30 0.00 80 1005.2
20260905034140 16 292 0.0 0.0 0.00 0.30 0.00 80 1005.1
20260905033839 16 180 0.0 0.0 0.00 0.30 0.00 80 1005.1
20260905033139 16 157 0.0 0.0 0.00 0.30 0.00 80 1005.0
20260905032439 16 0 0.0 0.0 0.00 0.30 0.00 80 1005.0
20260905032140 16 315 0.0 0.0 0.00 0.30 0.00 80 1004.9
20260905031739 16 225 0.0 0.0 0.00 0.30 0.00 80 1004.7
20260905031140 16 157 0.0 0.0 0.00 0.30 0.00 80 1004.7
20260905031039 16 337 0.0 0.0 0.00 0.30 0.00 80 1004.6
20260905030339 16 157 0.0 0.0 0.00 0.30 0.00 80 1005.0
20260905025639 16 157 0.0 0.0 0.00 0.30 0.00 80 1004.6
20260905025140 16 225 0.0 0.0 0.00 0.30 0.00 81 1004.6
20260905024939 16 22 0.0 0.0 0.00 0.30 0.00 81 1004.7
20260905024239 16 0 0.0 0.0 0.00 0.30 0.00 81 1004.6
20260905024140 16 0 0.0 0.0 0.00 0.30 0.00 81 1004.5
20260905023539 17 0 0.0 0.0 0.00 0.30 0.00 80 1004.6
20260905023140 17 225 0.0 0.0 0.00 0.30 0.00 80 1004.6
20260905022839 17 292 0.0 0.0 0.00 0.30 0.00 80 1004.6
20260905022139 17 337 0.0 0.0 0.00 0.30 0.00 80 1004.6
20260905021439 17 202 0.0 0.0 0.00 0.30 0.00 80 1004.2
20260905021140 17 180 0.0 0.0 0.00 0.30 0.00 80 1004.2
20260905020739 17 292 0.0 0.0 0.00 0.30 0.00 80 1004.3
20260905020140 17 315 0.0 0.0 0.00 0.30 0.00 80 1004.2
20260905020039 17 180 0.0 0.0 0.00 0.30 0.00 80 1004.2
20260905015339 17 337 0.0 0.0 0.00 0.30 0.00 80 1003.8
20260905015140 17 157 0.0 0.0 0.00 0.30 0.00 80 1003.7
20260905014656 17 292 0.0 8.0 0.00 0.30 0.00 80 1003.8
20260905014140 17 157 0.0 8.0 0.00 0.30 0.00 80 1004.0
20260905013940 17 0 8.0 8.0 0.00 0.30 0.00 80 1004.0
20260905013240 17 157 0.0 0.0 0.00 0.30 0.00 80 1004.0
20260905013140 17 157 0.0 0.0 0.00 0.30 0.00 80 1003.9
20260905012540 17 202 0.0 0.0 0.00 0.30 0.00 80 1003.8
20260905012140 17 337 0.0 0.0 0.00 0.30 0.00 80 1003.9
20260905011840 17 337 0.0 0.0 0.00 0.30 0.00 80 1004.1
20260905011140 17 337 0.0 0.0 0.00 0.30 0.00 80 1003.7
20260905010440 17 337 0.0 0.0 0.00 0.30 0.00 81 1003.6
20260905010140 17 315 0.0 0.0 0.00 0.30 0.00 81 1003.7
20260905005740 17 315 0.0 9.7 0.00 0.30 0.00 81 1003.3
20260905005140 17 157 0.0 0.0 0.00 0.30 0.00 82 1003.3
20260905005040 17 157 0.0 0.0 0.00 0.30 0.00 82 1003.5
20260905004340 17 337 0.0 0.0 0.00 0.30 0.00 83 1003.3
20260905004140 17 315 0.0 0.0 0.00 0.30 0.00 83 1003.2
20260905003640 17 337 0.0 0.0 0.00 0.30 0.00 83 1003.2
20260905003140 17 247 0.0 0.0 0.00 0.30 0.00 84 1003.1
20260905002940 17 315 0.0 0.0 0.00 0.30 0.00 84 1003.0
20260905002240 17 0 0.0 0.0 0.00 0.30 0.00 84 1002.8
20260905002140 17 315 0.0 0.0 0.00 0.30 0.00 84 1003.0
20260905001540 17 22 0.0 0.0 0.00 0.30 0.00 85 1003.1
20260905001140 17 315 0.0 0.0 0.00 0.30 0.00 85 1003.1
20260905000840 17 180 0.0 0.0 0.00 0.30 0.00 85 1003.1
20260905000140 17 180 0.0 0.0 0.00 0.30 0.00 85 1003.2
20260904235440 17 180 0.0 0.0 0.00 0.30 0.00 85 1003.1
20260904235140 17 180 0.0 0.0 0.00 0.30 0.00 86 1003.0
20260904234740 17 180 0.0 0.0 0.00 0.30 0.00 86 1003.1
20260904234140 17 0 0.0 0.0 0.00 0.30 0.00 86 1002.9
20260904234040 17 247 0.0 0.0 0.00 0.30 0.00 86 1002.9
20260904233340 17 202 0.0 0.0 0.00 0.30 0.00 86 1002.8
20260904233141 17 202 0.0 0.0 0.00 0.30 0.00 86 1002.8
20260904232640 17 247 0.0 0.0 0.00 0.30 0.00 87 1002.7
20260904232141 17 315 0.0 0.0 0.00 0.30 0.00 87 1002.8
20260904231940 17 315 0.0 0.0 0.00 0.30 0.00 87 1002.7
20260904231240 17 337 0.0 0.0 0.00 0.30 0.00 87 1002.8
20260904231141 17 337 0.0 0.0 0.00 0.30 0.00 87 1002.9
20260904230540 17 337 0.0 0.0 0.00 0.30 0.00 87 1002.8
20260904225840 17 247 0.0 0.0 0.00 0.30 0.00 87 1002.7
20260904225140 17 180 0.0 0.0 0.00 0.36 0.00 87 1002.8
20260904224440 17 315 0.0 0.0 0.00 0.36 0.00 87 1002.7
20260904223740 17 202 0.0 0.0 0.00 0.36 0.00 86 1002.4